Weather History for Phnom Penh, Cambodia

Change the Weather History Date:

Saturday, November 5, 2011

  Actual Average Record
Temperature  
Mean Temperature 86 °F -  
Max Temperature 95 °F 84 °F 95 °F (2011)
Min Temperature 77 °F 75 °F 71 °F (2000)
Cooling Degree Days 21    
Growing Degree Days 36 (Base 50)    
Moisture  
Dew Point 72 °F    
Average Humidity 60    
Maximum Humidity 83    
Minimum Humidity 41    
Precipitation  
Precipitation 0.00 in - - ()
Sea Level Pressure  
Sea Level Pressure 29.73 in    
Wind  
Wind Speed 8 mph ()    
Max Wind Speed 15 mph    
Max Gust Speed -    
Visibility 5.8 miles    
Events Rain    
Averages and records for this station are not official NWS values.
T = Trace of Precipitation, MM = Missing Value Source: Averaged Metar Reports

Daily Weather History Graph

Daily Weather History Graph

Search for Another Location

Airport:

Trip Planner

Search our weather history database for the weather conditions in past years. The results will help you decide how hot, cold, wet, or windy it might be!

Date:

Astronomy

Nov. 05, 2011 Rise Set
Actual Time 5:53 AM ICT 5:34 PM ICT
Civil Twilight 5:31 AM ICT 5:56 PM ICT
Nautical Twilight 5:06 AM ICT 6:21 PM ICT
Astronomical Twilight 4:41 AM ICT 6:46 PM ICT
Moon 1:52 PM ICT (11/5) 1:24 AM ICT (11/5)
Length of Visible Light 12h 24m
Length of Day
11h 40m
Waxing Gibbous, 74% of the Moon is Illuminated
Nov 5
Waxing Gibbous
Nov 11
Full
Nov 18
Last Quarter
Nov 25
New
Dec 2
First Quarter

Hourly Weather History & Observations

Time (ICT) Temp. Heat Index Dew Point Humidity Pressure Visibility Wind Dir Wind Speed Gust Speed Precip Events Conditions
6:00 AM 82.4 °F 86.3 °F 69.8 °F 66% 29.74 in 6.2 mi WNW 4.6 mph - N/A   Scattered Clouds
7:00 AM 78 °F - 74 °F 83% 29.82 in 6 mi NW 2.2 mph - -   Partly Cloudy
7:00 AM 84.2 °F 89.6 °F 71.6 °F 66% 29.77 in 6.2 mi SW 2.3 mph - N/A   Scattered Clouds
7:30 AM 84.2 °F 89.6 °F 71.6 °F 66% 29.77 in 6.2 mi NNW 6.9 mph - N/A   Scattered Clouds
8:00 AM 87.8 °F 92.6 °F 69.8 °F 55% 29.80 in 6.2 mi North 10.4 mph - N/A   Scattered Clouds
8:30 AM 91.4 °F 100.1 °F 73.4 °F 55% 29.80 in 6.2 mi NNW 12.7 mph - N/A   Scattered Clouds
9:00 AM 91.4 °F 98.4 °F 71.6 °F 52% 29.80 in 6.2 mi NW 11.5 mph - N/A   Scattered Clouds
9:30 AM 87.8 °F 92.6 °F 69.8 °F 55% 29.80 in 6.2 mi NNW 8.1 mph - N/A   Scattered Clouds
10:00 AM 91.4 °F 96.8 °F 69.8 °F 49% 29.80 in 6.2 mi North 13.8 mph - N/A   Partly Cloudy
10:30 AM 93.2 °F 98.8 °F 69.8 °F 46% 29.77 in 6.2 mi NNW 13.8 mph - N/A   Partly Cloudy
11:00 AM 93.2 °F 98.8 °F 69.8 °F 46% 29.77 in 6.2 mi NNW 9.2 mph - N/A   Partly Cloudy
11:30 AM 95.0 °F 101.3 °F 69.8 °F 44% 29.74 in 6.2 mi North 12.7 mph - N/A   Partly Cloudy
12:00 PM 95.0 °F 103.2 °F 71.6 °F 47% 29.74 in 6.2 mi NNW 9.2 mph - N/A   Partly Cloudy
12:30 PM 95.0 °F 103.2 °F 71.6 °F 47% 29.71 in 6.2 mi NNW 12.7 mph - N/A   Partly Cloudy
1:00 PM 95.0 °F 103.2 °F 71.6 °F 47% 29.71 in 6.2 mi North 11.5 mph - N/A   Partly Cloudy
1:30 PM 95.0 °F 99.5 °F 68.0 °F 41% 29.68 in 6.2 mi North 10.4 mph - N/A   Partly Cloudy
2:00 PM 95.0 °F 99.5 °F 68.0 °F 41% 29.68 in 6.2 mi NNW 9.2 mph - N/A   Partly Cloudy
2:30 PM 93.2 °F 97.7 °F 68.0 °F 44% 29.65 in 6.2 mi NNW 9.2 mph - N/A   Partly Cloudy
3:00 PM 93.2 °F 98.8 °F 69.8 °F 46% 29.65 in 6.2 mi NNW 9.2 mph - N/A   Partly Cloudy
3:30 PM 93.2 °F 100.5 °F 71.6 °F 49% 29.65 in 6.2 mi NNW 9.2 mph - N/A   Partly Cloudy
4:00 PM 93.2 °F 100.5 °F 71.6 °F 49% 29.65 in 6.2 mi NNW 10.4 mph - N/A   Partly Cloudy
4:30 PM 91.4 °F 98.4 °F 71.6 °F 52% 29.65 in 6.2 mi North 9.2 mph - N/A   Scattered Clouds
5:00 PM 89.6 °F 96.2 °F 71.6 °F 55% 29.65 in 6.2 mi NNW 5.8 mph - N/A   Scattered Clouds
5:30 PM 87.8 °F 92.6 °F 69.8 °F 55% 29.68 in 6.2 mi North 6.9 mph - N/A   Scattered Clouds
6:00 PM 87.8 °F 93.8 °F 71.6 °F 58% 29.68 in 5.6 mi NNE 6.9 mph - N/A   Scattered Clouds
6:30 PM 87.8 °F 95.6 °F 73.4 °F 62% 29.71 in 5.6 mi NE 8.1 mph - N/A   Scattered Clouds
7:00 PM 87.8 °F 97.6 °F 75.2 °F 66% 29.71 in 5.6 mi ENE 5.8 mph - N/A   Scattered Clouds
7:30 PM 86.0 °F 96.9 °F 77.0 °F 74% 29.74 in 5.0 mi ENE 9.2 mph - N/A Rain Light Rain
8:00 PM 84.2 °F 94.1 °F 77.0 °F 79% 29.74 in 5.0 mi ENE 3.5 mph - N/A Rain Light Rain
8:30 PM 84.2 °F 94.1 °F 77.0 °F 79% 29.74 in 5.0 mi ENE 6.9 mph - N/A Rain Light Rain
9:00 PM 84.2 °F 94.1 °F 77.0 °F 79% 29.74 in 5.0 mi ENE 6.9 mph - N/A Rain Light Rain
9:30 PM 82.4 °F 89.5 °F 75.2 °F 79% 29.77 in 5.0 mi East 13.8 mph - N/A   Scattered Clouds
10:00 PM 82.4 °F 89.5 °F 75.2 °F 79% 29.77 in 3.1 mi East 10.4 mph - N/A Rain Heavy Rain
10:30 PM 80.6 °F 85.4 °F 73.4 °F 79% 29.77 in 5.0 mi NE 12.7 mph - N/A Rain Light Rain
11:00 PM 80.6 °F 85.4 °F 73.4 °F 79% 29.80 in 5.0 mi NNE 15.0 mph - N/A   Mostly Cloudy
11:30 PM 80.6 °F 85.4 °F 73.4 °F 79% 29.80 in 4.3 mi WNW 6.9 mph - N/A Rain Rain